Lawrence, MA

1:23 PM EDT on April 23, 2018 (GMT -0400)
Lawrence Municipal

Weather History for KLWM - November, 2012

Change the Weather History Date:

Friday, November 16, 2012

  Actual Average Record
Temperature  
Mean Temperature 39 °F -  
Max Temperature 46 °F 49 °F 75 °F (1993)
Min Temperature 32 °F 31 °F 8 °F (1933)
Degree Days  
Heating Degree Days 26    
Moisture  
Dew Point 27 °F    
Average Humidity 67    
Maximum Humidity 89    
Minimum Humidity 49    
Precipitation  
Precipitation 0.00 in - - ()
Sea Level Pressure  
Sea Level Pressure 30.35 in    
Wind  
Wind Speed 2 mph (North)    
Max Wind Speed 6 mph    
Max Gust Speed -    
Visibility 10 miles    
Events      
Averages and records for this station are not official NWS values.
T = Trace of Precipitation, MM = Missing Value Source: NWS Daily Summary

Daily Weather History Graph

Daily Weather History Graph

Search for Another Location

Airport or City:

Astronomy

Nov. 16, 2012 Rise Set
Actual Time 6:37 AM EST 4:20 PM EST
Civil Twilight 6:07 AM EST 4:50 PM EST
Nautical Twilight 5:33 AM EST 5:25 PM EST
Astronomical Twilight 4:59 AM EST 5:58 PM EST
Moon 9:30 AM EST (11/16) 7:15 PM EST (11/16)
Length of Visible Light 10h 43m
Length of Day
9h 42m
Waxing Crescent, 11% of the Moon is Illuminated
Nov 16
Waxing Crescent
Nov 20
First Quarter
Nov 28
Full
Dec 6
Last Quarter
Dec 13
New

Hourly Weather History & Observations

Time (EST) Temp. Windchill Dew Point Humidity Pressure Visibility Wind Dir Wind Speed Gust Speed Precip Events Conditions
12:54 AM 34.0 °F - 28.9 °F 82% 30.32 in 10.0 mi Calm Calm - N/A   Clear
1:54 AM 33.1 °F - 30.0 °F 89% 30.32 in 10.0 mi Calm Calm - N/A   Clear
2:54 AM 32.0 °F - 28.9 °F 88% 30.32 in 10.0 mi Calm Calm - N/A   Clear
3:54 AM 33.1 °F - 28.9 °F 85% 30.33 in 10.0 mi Calm Calm - N/A   Clear
4:54 AM 34.0 °F - 28.0 °F 79% 30.32 in 10.0 mi Calm Calm - N/A   Clear
5:54 AM 33.1 °F 30.0 °F 27.0 °F 78% 30.32 in 10.0 mi North 3.5 mph - N/A   Clear
6:54 AM 33.1 °F 28.7 °F 27.0 °F 78% 30.33 in 10.0 mi North 4.6 mph - N/A   Clear
7:54 AM 34.0 °F 29.8 °F 28.0 °F 79% 30.35 in 10.0 mi North 4.6 mph - N/A   Clear
8:54 AM 36.0 °F 32.1 °F 28.9 °F 76% 30.36 in 10.0 mi NNE 4.6 mph - N/A   Clear
9:54 AM 39.0 °F 34.8 °F 28.9 °F 67% 30.37 in 10.0 mi North 5.8 mph - N/A   Clear
10:54 AM 42.1 °F 39.2 °F 28.9 °F 60% 30.36 in 10.0 mi NE 4.6 mph - N/A   Clear
11:54 AM 43.0 °F - 27.0 °F 53% 30.33 in 10.0 mi Calm Calm - N/A   Clear
12:54 PM 46.0 °F 43.9 °F 28.0 °F 50% 30.32 in 10.0 mi Variable 4.6 mph - N/A   Clear
1:54 PM 45.0 °F 43.5 °F 27.0 °F 49% 30.32 in 10.0 mi Variable 3.5 mph - N/A   Clear
2:54 PM 45.0 °F 42.6 °F 27.0 °F 49% 30.32 in 10.0 mi NNW 4.6 mph - N/A   Clear
3:54 PM 44.1 °F 42.5 °F 27.0 °F 51% 30.34 in 10.0 mi NNW 3.5 mph - N/A   Clear
4:54 PM 42.1 °F 39.2 °F 27.0 °F 55% 30.35 in 10.0 mi NNW 4.6 mph - N/A   Clear
5:54 PM 41.0 °F - 27.0 °F 57% 30.36 in 10.0 mi Calm Calm - N/A   Clear
6:54 PM 39.9 °F - 27.0 °F 60% 30.38 in 10.0 mi Calm Calm - N/A   Clear
7:54 PM 37.0 °F 34.5 °F 26.1 °F 65% 30.38 in 10.0 mi WSW 3.5 mph - N/A   Clear
8:54 PM 37.0 °F 34.5 °F 26.1 °F 65% 30.40 in 10.0 mi NW 3.5 mph - N/A   Clear
9:54 PM 36.0 °F 33.3 °F 25.0 °F 64% 30.43 in 10.0 mi NNW 3.5 mph - N/A   Clear
10:54 PM 34.0 °F - 24.1 °F 67% 30.44 in 10.0 mi Calm Calm - N/A   Clear
11:54 PM 34.0 °F - 25.0 °F 70% 30.45 in 10.0 mi Calm Calm - N/A   Clear